Regional Weather Roundup
Issued by NWS

Home | Current Version | Previous Version | Graphics & Text | Print | Product List | Glossary On
Versions: 1 2 3 4 5 6 7 8 9 10 11 12 13 14 15 16 17 18 19 20 21 22 23 24 25 26 27 28 29 30 31 32 33 34 35 36 37 38 39 40 41 42 43 44 45 46 47 48 49 50
741
ASUS43 KLOT 241703
RWRIL

ILLINOIS REGIONAL WEATHER ROUNDUP
NATIONAL WEATHER SERVICE CHICAGO/ROMEOVILLE IL
1200 PM CDT FRI MAR 24 2017

NOTE: "FAIR" INDICATES FEW OR NO CLOUDS BELOW 12,000 FEET WITH NO
SIGNIFICANT WEATHER AND/OR OBSTRUCTIONS TO VISIBILITY.

* THESE STATIONS ARE NOT UNDER NWS QUALITY CONTROL. THEY ALSO MAY NOT
  REPORT WEATHER SUCH AS PRECIPITATION OR FOG.

ILZ001-002-007-009-015-016-024-241800-
NORTHWEST ILLINOIS

CITY           SKY/WX    TMP DP  RH WIND       PRES   REMARKS
MOLINE         SUNNY     79  44  28 SW23G32   29.87R
STERLING*      SUNNY     77  47  34 SW18G29   29.88F
SAVANNA*       SUNNY     74  47  38 SW20G26   29.86F
$$

ILZ003-004-008-010-011-017-018-241800-
NORTH CENTRAL ILLINOIS

CITY           SKY/WX    TMP DP  RH WIND       PRES   REMARKS
ROCKFORD       MOSUNNY   76  46  34 SW21G31   29.89S
FREEPORT*      PTSUNNY   73  48  41 SW21G28   29.89S
ROCHELLE*      MOSUNNY   75  47  37 SW28G33   29.90F
DE KALB*       SUNNY     74  47  38 SW25G36   29.91F
$$

ILZ005-006-012>014-019>023-241800-
NORTHEAST ILLINOIS

CITY           SKY/WX    TMP DP  RH WIND       PRES   REMARKS
CHICAGO-OHARE  MOSUNNY   75  49  39 SW18G28   29.91S
CHICAGO-MIDWAY MOSUNNY   74  49  41 SW26G35   29.93S
AURORA         SUNNY     76  48  37 SW21G31   29.91F
LANSING*       SUNNY     72  55  53 SW23G31   29.95F
JOLIET*        SUNNY     75  51  43 SW15G21   29.94S
WAUKEGAN       CLOUDY    72  50  45 SW16G25   29.89S
DUPAGE AIRPORT SUNNY     75  49  39 SW22G36   29.91F
WHEELING       SUNNY     74  50  42 SW15G24   29.91F
MORRIS*        SUNNY     76  47  36 SW28      29.92F
NORTHERLY ISL    N/A     72  46  39 S15         N/A
$$

LMZ740>746-241800-
SOUTHERN LAKE MICHIGAN

STATION/POSITION SKY/WX   TEMP    WIND        PRES    VSBY  WAVE
                          AIR SEA DIR/SP/G                  HT/PER
                          (F)     (DEG/KT/KT) (MB)    (MI)  (FT/S)
HARRISON CRIB              69     220/ 28/ 33   N/A
BURNHAM HARBOR             72     190/ 11/ 20   N/A
CALUMET HARBOR             69     210/ 14/ 26 1013.1F
BURNS HARBOR               68     220/ 21/ 29 1014.6S
MICHIGAN CITY              69     200/ 24/ 27   N/A
$$

ILZ025>027-034>036-040-047-049-050-058-095>099-241800-
WEST-CENTRAL ILLINOIS

CITY           SKY/WX    TMP DP  RH WIND       PRES   REMARKS
QUINCY         MOSUNNY   74  43  32 SW21G31   29.92R
GALESBURG*     SUNNY     77  44  30 SW24G32   29.89F
MACOMB*        SUNNY     78  43  28 SW22G33   29.93S
PITTSFIELD*    SUNNY     77  50  39 S17G26    29.95S
$$

ILZ028>032-037-038-041>044-048-051>054-059>061-241800-
CENTRAL ILLINOIS

CITY           SKY/WX    TMP DP  RH WIND       PRES   REMARKS
PONTIAC        SUNNY     76  52  43 SW23G33   29.96F
BLOOMINGTON    SUNNY     75  54  47 SW26G35   29.97F
DECATUR        SUNNY     73  55  53 S28G36    30.01F
PEORIA         SUNNY     77  51  40 SW18      29.93F
SPRINGFIELD    SUNNY     76  55  48 S16G31    29.97F
TAYLORVILLE    NOT AVBL
$$

ILZ033-039-045-046-055>057-062-063-241800-
EAST-CENTRAL ILLINOIS

CITY           SKY/WX    TMP DP  RH WIND       PRES   REMARKS
CHAMPAIGN      SUNNY     75  55  49 S25G36    30.03S
RANTOUL*       SUNNY     76  57  51 SW23G29   30.01F
MATTOON        MOSUNNY   70  58  65 S18G32    30.06F
PARIS*         SUNNY     73  58  60 S24G32    30.08F
$$

ILZ079-100>102-241800-
SOUTHWEST ILLINOIS

CITY           SKY/WX    TMP DP  RH WIND       PRES   REMARKS
ALTON          MOSUNNY   73  55  53 S21G29    30.00F
BELLEVILLE     PTSUNNY   73  59  61 S21G28    30.01F
CAHOKIA*       MOSUNNY   74  55  51 S17G30    30.00F
SPARTA*        MOSUNNY   69  58  68 S24G33    30.06F
$$

ILZ064>066-069>071-074>076-080>082-084>086-088>090-092>094-241800-
SOUTH-CENTRAL ILLINOIS

CITY           SKY/WX    TMP DP  RH WIND       PRES   REMARKS
CARBONDALE     CLOUDY    68  60  75 S23G29    30.11F
CAIRO*         CLOUDY    68  59  73 S16G23    30.16F
EFFINGHAM*     PTSUNNY   70  59  68 S14G28    30.09S
MARION         CLOUDY    68  61  77 S17       30.14S
MT. VERNON     CLOUDY    69  59  70 S22G29    30.10F
CENTRALIA*     CLOUDY    70  60  70 S23G35    30.06F
SALEM*         CLOUDY    70  58  66 S22G29    30.07F
$$

ILZ067-068-072-073-078-083-087-091-241800-
SOUTHEAST ILLINOIS

CITY           SKY/WX    TMP DP  RH WIND       PRES   REMARKS
LAWRENCEVILLE  CLOUDY    69  57  65 S21G29    30.14F
FLORA*         CLOUDY    71  59  66 S24G32    30.10F
FAIRFIELD*     CLOUDY    68  58  70 S14       30.12S
HARRISBURG*    CLOUDY    69  59  71 S18G26    30.15F
ROBINSON*      PTSUNNY   69  57  65 S18G24    30.13F
CARMI*         CLOUDY    68  58  71 S22       30.15S
$$

ABBREVIATIONS USED IN REMARKS
   TC - TEMPERATURE IN CELSIUS
  WCI - WIND CHILL INDEX
   HX - HEAT INDEX
  VSB - VISIBILITY
$$





USA.gov is the U.S. government's official web portal to all federal, state and local government web resources and services.